Other Public Products
Issued by NWS Grand Forks, ND

Home | Current Version | Previous Version | Text Only | Print | Product List | Glossary Off
Versions: 1 2 3 4 5 6 7 8 9 10 11 12 13 14 15 16 17 18 19 20 21 22 23 24 25 26 27 28 29 30 31 32 33 34 35 36 37 38 39 40 41 42 43 44 45 46 47 48 49 50

000
FPUS83 KFGF 040231
OPUFGF
PRAIRIE TO PINES WEATHER ROUNDUP
NATIONAL WEATHER SERVICE EASTERN NORTH DAKOTA/GRAND FORKS ND
800 PM CST SAT DEC 03 2016

 **SATELLITE DATA USED TO AUGMENT SKY COVER AT AUTOMATED STATIONS**
 *****  WEATHER ACROSS EASTERN NORTH DAKOTA  *****

CITY           SKY/WX    TMP DP  RH WIND       PRES   REMARKS
GRAND FORKS    LGT SNOW  31  27  85 SE14      29.95F WCI  21
GRAND FORKS AF CLOUDY    32  28  86 S13       29.94F WCI  22
GRAND CITY NWS   N/A     30 N/A N/A S10         N/A  WCI  21
BUXTON           N/A     45  44  99 S16         N/A
DEVILS LAKE    CLOUDY    31  29  92 SE16      29.86F WCI  20
FARGO          CLOUDY    33  29  85 SE18G28   29.97F WCI  22
WAHPETON ARPT  CLOUDY    32  30  93 SE17      30.00S WCI  21
$$

 *****  WEATHER ACROSS CENTRAL AND WESTERN NORTH DAKOTA  *****

CITY           SKY/WX    TMP DP  RH WIND       PRES   REMARKS
JAMESTOWN      CLOUDY    33  32  96 S14       29.86F WCI  23
BISMARCK       LGT SNOW  25  24  96 SE5       29.83F FOG     WCI  19
MINOT          LGT SNOW  28  25  88 S8        29.75F FOG     WCI  20
MINOT AFB      MIX PCPN  27  25  93 S10       29.74F WCI  17
GARRISON         N/A     28  26  92 S9        29.76F WCI  19
WILLISTON      CLOUDY    30  28  92 SW6       29.74F WCI  24
DICKINSON      MOCLDY    28  22  78 W15       29.75S WCI  16
HETTINGER      PTCLDY    28  22  78 W9        29.82S WCI  19
$$

 *****  OTHER OBSERVATIONS NORTHEAST NORTH DAKOTA  *****

CITY           SKY/WX    TMP DP  RH WIND       PRES   REMARKS
WALHALLA         N/A     28  28 100 SE15      29.92F WCI  17
LANGDON        CLOUDY    28  28 100 SE21      29.86F WCI  15
CAVALIER         N/A     28  27  93 S13       29.94F FOG     WCI  18
GRAFTON        LGT SNOW  28  28 100 SE14      29.97F WCI  17
CANDO          CLOUDY    32  32 100 S20G25    29.85F WCI  20
FORT TOTTEN      N/A     30  30 100 S13       29.95S WCI  20
ROLLA          CLOUDY    28  28 100 S18G25    29.81S WCI  16
RUGBY            N/A     28  28 100 S12       29.80F WCI  18
 ***** THE ABOVE OBSERVATIONS ARE NON NWS ARE NOT QUALITY
        CONTROLLED AND MAY MIS-REPORT RAIN FOR SNOW...
$$

 *****  OTHER OBSERVATIONS SOUTHEAST NORTH DAKOTA *****

CITY           SKY/WX    TMP DP  RH WIND       PRES   REMARKS
COOPERSTOWN    CLOUDY    30  30 100 SE18      29.89F FOG     WCI  18
VALLEY CITY    CLOUDY    32  32 100 S10       29.92F WCI  24
OAKES          NOT AVBL
GWINNER        CLOUDY    32  32 100 SE10      29.94F WCI  24
SHEYENNE NWR     N/A     33  31  92 S14       29.95S WCI  23
BUFFALO          N/A     32  30  93 NE15        N/A  WCI  22
WYNDMERE         N/A     34  34 100 SE14        N/A  WCI  24
 ***** THE ABOVE OBSERVATIONS ARE NON NWS ARE NOT QUALITY
       CONTROLLED AND MAY MIS-REPORT RAIN FOR SNOW...
$$

  *****  WEATHER ACROSS NORTHERN MINNESOTA  *****

CITY           SKY/WX    TMP DP  RH WIND       PRES   REMARKS
FLAG ISLAND    CLOUDY    27  21  80 S23       30.05F WCI  12
WARROAD        CLEAR     25  19  80 SE9       30.05F WCI  15
ROSEAU         CLOUDY    25  21  86 SE9       30.03F WCI  15
HALLOCK        CLOUDY    28  25  86 SE17      29.97F WCI  16
THF RVR FALLS  FLURRIES  26  21  81 SE16      30.00F WCI  14
HALSTAD          N/A     31  28  88 S16         N/A  WCI  20
FOSSTON        CLOUDY    27  21  80 SE10G17   30.00F WCI  17
BAUDETTE       CLEAR     23  18  81 SE10      30.07F WCI  12
WASKISH        PTCLDY    21  19  93 E3        30.07F
CROOKSTON      FLURRIES  30  27  86 S17       29.98F WCI  18
$$
  *****  WEATHER ACROSS CENTRAL AND WEST MINNESOTA  *****

CITY           SKY/WX    TMP DP  RH WIND       PRES   REMARKS
BEMIDJI        MOCLDY    25  21  85 SE10      30.05F WCI  15
PARK RAPIDS    CLOUDY    27  22  81 SE13      30.04F WCI  16
WADENA         MIX PCPN  27  25  93 SE9       30.05F WCI  17
DETROIT LAKES  CLOUDY    30  28  93 SE14      30.01F WCI  20
MOORHEAD       CLOUDY    32  28  86 SE17G24   29.98F WCI  21
FERGUS FALLS   LGT SNOW  32  32 100 SE17G23   30.04F WCI  21
ELBOW LAKE     LGT SNOW  31  31  99 E17       30.02F WCI  20
MORRIS MN      LGT SNOW  34  32  93 SE16G23   30.01F WCI  23
STAPLES        CLOUDY    27  25  93 SE8       30.07F WCI  18
WHEATON        CLOUDY   N/A N/A N/A SE17      30.01  HAZE
$$
  *****  WEATHER ELSEWHERE ACROSS MINNESOTA  *****

CITY           SKY/WX    TMP DP  RH WIND       PRES   REMARKS
DULUTH         CLOUDY    28  20  71 S12       30.16F WCI  18
INTRNTL FALLS  CLOUDY    27  19  72 S7        30.12F WCI  19
ELY            CLOUDY    27  21  80 S3        30.14F
CLOQUET        CLOUDY    28  19  69 S6        30.15F WCI  22
BRAINERD       LGT SNOW  27  23  85 SE7       30.11F FOG     WCI  19
HIBBING        CLOUDY    26  18  71 S7        30.13F WCI  18
ALEXANDRIA     LGT SNOW  30  29  96 SE13      30.04F FOG     WCI  20
SAINT CLOUD    CLOUDY    30  24  78 SE12      30.13F WCI  20
MINNEAPOLIS    CLOUDY    31  23  72 SE10      30.17F WCI  22
$$

  *****  WEATHER ACROSS SOUTH DAKOTA  *****

CITY           SKY/WX    TMP DP  RH WIND       PRES   REMARKS
SIOUX FALLS    CLOUDY    34  33  96 S18       30.04F FOG     WCI  23
BROOKINGS      CLOUDY    33  31  92 S18       30.00S FOG     WCI  22
WATERTOWN      CLOUDY    33  32  96 S16G23    29.96F WCI  23
HURON          PTCLDY    34  33  96 S13       29.95F WCI  25
SISSETON         N/A     33  32  96 S13       29.98F WCI  24
ABERDEEN       CLOUDY    33  30  88 S14       29.93F WCI  23
MITCHELL       CLOUDY    37  34  89 S17G25    29.98F
PIERRE         CLEAR     28  21  75 W7        29.89F WCI  21
MOBRIDGE       CLOUDY    30  23  75 CALM      29.84F
RAPID CITY     CLOUDY    31  21  66 W7        29.90S WCI  24
$$

  *****  SOME WEATHER IN NEARBY STATES *****

CITY           SKY/WX    TMP DP  RH WIND       PRES   REMARKS
GLASGOW MT     CLEAR     32  27  81 W17       29.80S WCI  21
GREAT FALLS MT CLEAR     28  18  66 SW10      29.92R WCI  19
CHEYENNE WY    CLOUDY    26  10  50 W13       30.00R WCI  15
SCOTTSBLUFF NE CLOUDY    35  14  42 W13       30.00S
OMAHA NE       LGT SNOW  34  30  85 SE5       30.12F FOG
DES MOINES IA  LGT RAIN  38  33  82 SE10      30.17F
DAVENPORT IA   MOCLDY    33  27  78 S6        30.27S
CHICAGO IL     CLOUDY    32  24  72 SW3       30.30R
EAU CLAIRE WI  CLOUDY    28  22  78 E3        30.21F
LA CROSSE WI   MOCLDY    34  26  72 E6        30.23F
$$

  *****  SOME NATIONAL WEATHER *****

CITY           SKY/WX    TMP DP  RH WIND       PRES   REMARKS
LA GUARDIA NY  MOCLDY    45  29  53 NW14      30.12R
RALEIGH NC     CLOUDY    46  30  53 CALM      30.27R
ATLANTA GA     LGT RAIN  48  44  86 E7        30.20F
NEW ORLEANS LA DRIZZLE   61  55  81 E23G36    29.98F
OKLAHOMA CITY  CLOUDY    44  43  96 E7        30.05S
ALBUQUERQUE NM CLEAR     38  26  62 NW16      30.03R
SALT LAKE CITY MOCLDY    34  21  59 SE7       30.27R
LOS ANGELES CA CLEAR     60  22  23 E5        30.04S
BOISE ID       CLEAR     36  28  73 S3        30.22S
SEATTLE WA     CLOUDY    46  43  89 S14G23    30.16F
$$

*** WEATHER ACROSS MANITOBA...SASKATCHEWAN AND ONTARIO ***
                ***ONTARIO***

CITY           SKY/WX    TMP DP  RH WIND       PRES   REMARKS
GERALDTON      CLOUDY    21  19  93 E3        30.21F
THUNDER BAY    FLURRIES  30  25  80 NE3       30.21F
SIOUX LOOKOUT  FLURRIES  23  19  86 S6        30.12F WCI  16
TORONTO        MOCLDY    37  30  75 W9        30.20F
BIG TROUT LK   CLOUDY    21  19  93 SW10      30.15S WCI  10
PICKLE LAKE    FRZ DRZL  19  19 100 SE6       30.13F WCI  11
DRYDEN         CLOUDY    23  21  93 S10       30.09F WCI  12
KENORA         FLURRIES  25  19  80 S15       30.05F WCI  12
$$
                *** MANITOBA***

CITY           SKY/WX    TMP DP  RH WIND       PRES   REMARKS
BRANDON        CLOUDY    30  27  86 S14       29.80F WCI  20
DAUPHIN        CLOUDY    32  27  80 S10       29.77F WCI  24
ISLAND LAKE    NOT AVBL
PILOT MOUND      N/A     28  27  93 S21G26      N/A  WCI  15
THE PAS        FLURRIES  28  27  93 SE8       29.74F WCI  20
THOMPSON       FLURRIES  16  14  93 E6        29.91F WCI   7
WINNIPEG       FLURRIES  27  23  86 SE20G28   29.95F WCI  13
LYNN LAKE      FLURRIES  21  21 100 SE12G17   29.78F WCI   9
CHURCHILL      CLOUDY    16  14  93 S7        30.05F WCI   6
GILLAM         LGT SNOW   5   1  85 S5        30.05F WCI  -4
$$
                ***SASKATCHEWAN***

CITY           SKY/WX    TMP DP  RH WIND       PRES   REMARKS
ESTEVAN        LGT SNOW  32  30  93 W9        29.70S WCI  24
KINDERSLEY     PTCLDY    18  16  93 SW5       29.74S WCI  11
LLOYDMINSTER   PTCLDY    23  21  93 W12       29.67F WCI  12
PRINCE ALBERT  FLURRIES  27  25  93 SW2       29.70S
REGINA         CLOUDY    23  23 100 NW17      29.71R WCI   9
YORKTON        CLOUDY    27  23  86 S9        29.67S WCC1F1C2F2C3F3C4F4C5F5C6F6C7F7C8F8C9F9CaFaCbFbCcFcCdFdCe!


USA.gov is the U.S. government's official web portal to all federal, state and local government web resources and services.